Regional Weather Roundup
Issued by NWS

Home | Current Version | Previous Version | Text Only | Print | Product List | Glossary On
Versions: 1 2 3 4 5 6 7 8 9 10 11 12 13 14 15 16 17 18 19 20 21 22 23 24 25 26 27 28 29 30 31 32 33 34 35 36 37 38 39 40 41 42 43 44 45 46 47 48 49 50
000
ASUS43 KDMX 280807
RWRIA

WEATHER ROUNDUP FOR IOWA
NATIONAL WEATHER SERVICE DES MOINES IA
300 AM CDT TUE JUL 28 2015

NOTE: "FAIR" INDICATES FEW OR NO CLOUDS BELOW 12,000 FEET WITH NO
SIGNIFICANT WEATHER AND/OR OBSTRUCTIONS TO VISIBILITY.

* - THESE STATIONS ARE NOT NWS STATIONS...THUS NOT UNDER NWS
QUALITY CONTROL.  THEY ALSO DO NOT REPORT WEATHER SUCH
AS PRECIPITATION OR FOG.

IAZ001>003-012>014-020>022-031>034-043>046-280900-
   NORTHWEST IOWA

CITY           SKY/WX    TMP DP  RH WIND       PRES   REMARKS
CARROLL *      MOCLDY    72  70  94 SE8       29.85F
CHEROKEE *     MOCLDY    73  70  88 S7        29.81F
DENISON *      CLEAR     73  70  88 S15G24    29.81F
LE MARS *      RAIN      73  72  94 S13G26    29.81R
ORANGE CITY *  PTCLDY    72  68  88 SE12      29.78F
SHELDON *      MOCLDY    72  68  88 SE16G25   29.76F
SIOUX CITY     PTCLDY    76  70  82 S13       29.77F
SPENCER        LGT RAIN  73  67  81 SE16      29.81F
STORM LAKE *   PTCLDY    70  70 100 SE12      29.84F
$$

IAZ055>058-069>071-079>083-090>094-280900-
   SOUTHWEST IOWA

CITY           SKY/WX    TMP DP  RH WIND       PRES   REMARKS
ATLANTIC *     MOCLDY    73  70  88 S10       29.86S
AUDUBON *      CLEAR     73  68  83 S10       29.87S
CLARINDA *     CLEAR     73  72  94 SE7       29.88S
COUNCIL BLFS * CLEAR     73  72  94 SE12G18   29.83F
CRESTON *      CLEAR     72  68  88 SE9       29.89F
HARLAN  *      CLEAR     73  73 100 S10       29.88S
LAMONI         CLEAR     73  69  87 SE9       29.89F
RED OAK *      CLEAR     73  72  94 S8        29.85F
SHENANDOAH *     N/A     75  73  94 SE10      29.85S
$$

IAZ047>049-059>061-072>074-084-280900-
   CENTRAL IOWA

CITY           SKY/WX    TMP DP  RH WIND       PRES   REMARKS
AMES           PTCLDY    70  69  97 SE3       29.88F
ANKENY *       CLEAR     72  72 100 SE5       29.88S
CHARITON *     PTCLDY    73  70  88 S9        29.89F
DES MOINES     MOCLDY    74  70  87 SE7       29.87F
GRINNELL*      CLOUDY    73  72  94 E9        29.91F FOG
KNOXVILLE *    MOCLDY    72  70  94 E6        29.88F FOG
MARSHALLTOWN     N/A     73  72  96 SE13      29.90F
PELLA *        CLOUDY    72  72 100 SE9       29.91F FOG
PERRY *          N/A     72  70  94 SE5       29.87S
$$

IAZ004>006-015-016-023>025-035-036-280900-
   NORTH CENTRAL IOWA

CITY           SKY/WX    TMP DP  RH WIND       PRES   REMARKS
ALGONA *       CLOUDY    72  68  88 S14G22    29.87S
CLARION *      CLOUDY    72  70  94 SE12      29.88F
ESTHERVILLE    MOCLDY    70  67  90 S14G23    29.84F
FORT DODGE *   CLOUDY    72  66  83 SE5       29.88S
MASON CITY     CLEAR     71  71 100 SE10      29.91F
FOREST CITY *  CLOUDY    72  68  88 SE10G18   29.88F
IOWA FALLS *   MOCLDY    72  70  94 SE8       29.91S
$$

IAZ007>011-017>019-026>030-037>042-050>054-066-280900-
   NORTHEAST IOWA

CITY           SKY/WX    TMP DP  RH WIND       PRES   REMARKS
CEDAR RAPIDS   CLEAR     71  71 100 SE7       29.93F
CHARLES CITY * MOCLDY    72  72 100 SE8       29.93S FOG
CLINTON *      CLEAR     72  64  78 E10       29.99S
DECORAH *      CLEAR     70  70 100 SE7       29.94S
DUBUQUE        CLEAR     71  68  90 SE9       29.97F
MONTICELLO *   CLEAR     72  70  94 SE5       29.95S
OELWEIN *      CLEAR     72  72 100 SE8       29.94F
WATERLOO       CLEAR     73  71  93 SE8       29.91F
$$

IAZ064-065-067-068-078-280900-
   EAST CENTRAL IOWA

CITY           SKY/WX    TMP DP  RH WIND       PRES   REMARKS
DAVENPORT      CLEAR     72  70  93 E6        29.96S
IOWA CITY      MOCLDY    72  70  93 SE6       29.94F
MT. PLEASANT * CLOUDY    73  72  94 SE3       29.94F FOG
MUSCATINE *    PTCLDY    70  68  94 CALM      29.94F
QUAD CITIES    CLEAR     72  69  90 E6        29.95S
$$

IAZ062-063-075>077-085>089-095>099-280900-
   SOUTHEAST IOWA

CITY           SKY/WX    TMP DP  RH WIND       PRES   REMARKS
BURLINGTON     CLEAR     74  73  97 SE6       29.94F
FAIRFIELD *    CLOUDY    73  72  94 SE7       29.93F FOG
FORT MADISON * CLEAR     72  72 100 E5        29.95F FOG
KEOKUK *       FOG       73  73 100 SE3       29.93F VSB 0
OSKALOOSA *    CLOUDY    73  72  94 SE8       29.92F FOG
CENTERVILLE *  CLEAR     73  72  94 S8        29.92F
OTTUMWA        FOG       73  73 100 SE12      29.90F VSB 1/2
WASHINGTON *   CLOUDY    73  73 100 SE3       29.95S FOG
$$

ABBREVIATIONS USED IN REMARKS
   TC - TEMPERATURES IN CELSIUS
  WCI - WIND CHILL INDEX
   HX - HEAT INDEX
  VSB - VISIBILITY
$$



USA.gov is the U.S. government's official web portal to all federal, state and local government web resources and services.